This demonstration page uses our WeatherBlox Daily Observations layout. Learn more.

Left ArrowRight Arrow

40.92945, -100.16068

Hourly Observations for October 6, 2016

Temp ( °F °C ) Dew Point ( °F °C ) Humidity (%) Winds ( mph kmh ) Pressure ( in mb ) Visibility ( mi km ) Precip ( " mm )
12:15 am 00:15 Clear 52 11.1 42 5.5 69 69 ENE 6 9 29.94 1014 10 16 N/A
12:35 am 00:35 Clear 51 10.6 42 5.7 72 72 ESE 5 7 29.94 1014 10 16 N/A
12:55 am 00:55 Clear 54 12.4 43 6 65 65 ESE 6 9 29.94 1014 10 16 N/A
1:15 am 01:15 Clear 53 11.6 43 6.1 69 69 E 5 7 29.94 1014 10 16 N/A
1:35 am 01:35 Clear 51 10.5 44 6.4 76 76 ENE 5 7 29.94 1014 10 16 N/A
1:55 am 01:55 Partly Cloudy 51 10.6 44 6.5 76 76 N 5 7 29.91 1013 10 16 N/A
2:15 am 02:15 Partly Cloudy 52 10.9 44 6.6 75 75 N 6 9 29.94 1014 10 16 N/A
2:35 am 02:35 Partly Cloudy 52 11 44 6.7 75 75 N 8 13 29.91 1013 10 16 N/A
2:55 am 02:55 Clear 52 11 44 6.8 76 76 N 3 6 29.91 1013 10 16 N/A
3:15 am 03:15 Partly Cloudy 51 10.8 45 7 78 78 NNE 5 7 29.91 1013 10 16 N/A
3:35 am 03:35 Mostly Cloudy 52 11 45 7.1 77 77 NNE 7 11 29.91 1013 10 16 N/A
3:55 am 03:55 Partly Cloudy 54 12.3 46 7.6 73 73 NE 7 11 29.88 1012 10 16 N/A
4:15 am 04:15 Partly Cloudy 54 12 46 7.6 75 75 NNE 9 15 29.91 1013 10 16 N/A
4:35 am 04:35 Partly Cloudy 54 12.2 45 7.3 72 72 NNE 10 17 29.91 1013 10 16 N/A
4:55 am 04:55 Clear 53 11.9 44 6.8 71 71 NNE 10 17 29.91 1013 10 16 N/A
5:15 am 05:15 Clear 53 11.9 45 7 72 72 NE 9 15 29.94 1014 10 16 N/A
5:35 am 05:35 Clear 53 11.7 45 7.2 74 74 NE 10 17 29.94 1014 10 16 N/A
5:55 am 05:55 Clear 53 11.5 45 7.4 76 76 NE 13 20 29.94 1014 10 16 N/A
6:15 am 06:15 Clear 53 11.5 44 6.9 74 74 NE 13 20 29.94 1014 10 16 N/A
6:35 am 06:35 Clear 52 11 43 6 72 72 NNE 12 19 29.94 1014 10 16 N/A
6:55 am 06:55 Mostly Cloudy 52 11 42 5.3 68 68 NE 10 17 29.97 1015 10 16 N/A
7:15 am 07:15 Cloudy 52 10.9 40 4.6 65 65 NE 13 20 29.97 1015 10 16 N/A
7:35 am 07:35 Cloudy 51 10.6 39 4 64 64 NE 13 20 29.97 1015 10 16 N/A
7:55 am 07:55 Cloudy 50 10.2 38 3.4 63 63 NE 13 20 29.97 1015 10 16 N/A
8:15 am 08:15 Cloudy 50 10 37 2.7 61 61 NE 12 19 29.97 1015 10 16 N/A
8:35 am 08:35 Cloudy 50 10 36 2.2 59 59 NE 14 22 29.97 1015 10 16 N/A
8:55 am 08:55 Cloudy with Haze 50 10 36 2 58 58 NE 16 26 29.97 1015 5 8 N/A
9:15 am 09:15 Cloudy with Haze 50 10 35 1.8 57 57 NE 14 22 29.97 1015 4 6 N/A
9:35 am 09:35 Cloudy with Haze 50 10 35 1.4 55 55 NE 20 31 29.97 1015 5 8 N/A
9:55 am 09:55 Cloudy with Haze 51 10.4 34 1.3 54 54 NE 20 31 29.94 1014 4 6 N/A
10:15 am 10:15 Cloudy with Haze 51 10.6 35 1.4 53 53 NE 18 30 29.94 1014 4 6 N/A
10:35 am 10:35 Cloudy with Haze 51 10.7 34 1.1 52 52 NE 21 33 29.97 1015 4 6 N/A
10:55 am 10:55 Cloudy with Haze 51 10.7 34 1 51 51 NNE 14 22 29.97 1015 4 6 N/A
11:15 am 11:15 Cloudy with Haze 51 10.8 33 0.7 50 50 NNE 21 33 29.94 1014 4 6 N/A
11:35 am 11:35 Cloudy with Haze 51 10.5 33 0.5 50 50 NNE 13 20 29.94 1014 5 8 N/A
11:55 am 11:55 Cloudy 51 10.5 32 0 49 49 NNE 18 30 29.97 1015 7 11 N/A
12:15 pm 12:15 Cloudy 50 10.2 32 0 49 49 NNE 17 28 29.94 1014 10 16 N/A
12:35 pm 12:35 Cloudy with Nearby Thunderstorms 49 9.7 33 0.8 54 54 NNE 23 37 29.94 1014 10 16 N/A
12:55 pm 12:55 Cloudy with Light Rain 47 8.3 36 2.4 67 67 NE 18 30 30.00 1016 10 16 0.02 0.51
1:15 pm 13:15 Cloudy 47 8.3 38 3.2 71 71 NNE 7 11 30.00 1016 10 16 0.01 0.25
1:35 pm 13:35 Cloudy with Nearby Thunderstorms 47 8.6 38 3.5 71 71 NNW 13 20 30.06 1018 10 16 0.01 0.25
1:55 pm 13:55 Cloudy with Light Rain 46 8 38 3.2 72 72 N 15 24 30.06 1018 10 16 0.01 0.25
2:15 pm 14:15 Cloudy with Light Rain 46 7.5 38 3.6 77 77 N 17 28 30.06 1018 10 16 N/A
2:35 pm 14:35 Cloudy 45 7.3 38 3.1 75 75 N 17 28 30.06 1018 10 16 N/A
2:55 pm 14:55 Cloudy 45 7 38 3.4 78 78 N 14 22 30.09 1019 10 16 N/A
3:15 pm 15:15 Cloudy 44 6.5 38 3.2 80 80 NNW 17 28 30.09 1019 10 16 N/A
3:35 pm 15:35 Cloudy with Drizzle 43 6.1 38 3.3 82 82 NNW 15 24 30.12 1020 10 16 N/A
3:55 pm 15:55 Cloudy 43 6 37 3 81 81 NNW 18 30 30.12 1020 10 16 0.00 0.00
4:15 pm 16:15 Cloudy 43 6 37 3 81 81 NNW 15 24 30.12 1020 10 16 N/A
4:35 pm 16:35 Cloudy 43 6.1 38 3.1 81 81 NNW 16 26 30.12 1020 10 16 N/A
4:55 pm 16:55 Cloudy 43 5.9 36 2.4 78 78 NNW 16 26 30.15 1021 10 16 N/A
5:15 pm 17:15 Cloudy 42 5.6 36 2.2 79 79 N 16 26 30.15 1021 10 16 N/A
5:35 pm 17:35 Cloudy 43 5.9 36 2.3 78 78 N 15 24 30.15 1021 10 16 N/A
5:55 pm 17:55 Cloudy 42 5.8 36 2.2 78 78 NNW 15 24 30.15 1021 10 16 N/A
6:15 pm 18:15 Cloudy 42 5.5 36 2.1 79 79 NNW 18 30 30.18 1022 10 16 N/A
6:35 pm 18:35 Cloudy 41 5 35 1.8 80 80 NNW 17 28 30.18 1022 10 16 N/A
6:55 pm 18:55 Cloudy 40 4.7 35 1.5 80 80 NNW 17 28 30.24 1024 10 16 0.00 0.00
7:15 pm 19:15 Cloudy 40 4.7 35 1.6 81 81 NNW 14 22 30.24 1024 10 16 N/A
7:35 pm 19:35 Partly Cloudy 39 4 34 1.2 82 82 NNW 13 20 30.24 1024 10 16 N/A
7:55 pm 19:55 Clear 38 3.5 34 1.1 84 84 NNW 13 20 30.24 1024 10 16 N/A
8:15 pm 20:15 Clear 38 3.2 34 1 86 86 NNW 12 19 30.24 1024 10 16 N/A
8:35 pm 20:35 Mostly Cloudy 38 3.1 34 1.1 87 87 NW 14 22 30.27 1025 10 16 N/A
8:55 pm 20:55 Cloudy 38 3.5 34 1.1 84 84 NW 14 22 30.27 1025 10 16 N/A
9:15 pm 21:15 Partly Cloudy 38 3.2 34 1 86 86 NNW 10 17 30.27 1025 10 16 N/A
9:35 pm 21:35 Clear 37 2.9 34 1 87 87 NNW 8 13 30.27 1025 10 16 N/A
9:55 pm 21:55 Clear 36 2.2 33 0.5 89 89 WNW 3 6 30.30 1026 10 16 N/A
10:15 pm 22:15 Clear 35 1.4 32 0.2 92 92 NNW 8 13 30.33 1027 10 16 N/A
10:35 pm 22:35 Clear 35 1.6 33 0.3 91 91 N 5 7 30.33 1027 10 16 N/A
10:55 pm 22:55 Clear 34 1 32 0 93 93 NNW 6 9 30.33 1027 10 16 N/A
11:15 pm 23:15 Clear 34 1 32 0 93 93 NNW 6 9 30.33 1027 10 16 N/A
11:35 pm 23:35 Clear 34 0.9 32 -0.1 93 93 NW 6 9 30.33 1027 10 16 N/A
11:55 pm 23:55 Clear 33 0.6 32 -0.2 94 94 Calm 30.33 1027 10 16 N/A

Powered by AerisWeather